Weather in Muminabad

Uzbekistan     39°03′21″N   66°55′27″E
temp.,
°C
wind,
m/s
gust,
m/s
humid.,
%
clouds,
%
prec.,
mm/h
press.,
hPa
HPBL,
m
28 february, sun
sun2823:00−2ese22580 0.0 102822
02:00−1se12530 0.0 102621
05:000ese22460 0.0 102322
08:00+1ese22450 0.0 102322
11:00+6nne11580 0.0 1020148
14:00+8nne11470 0.0 1018394
17:00+7e12530 0.0 1017126
20:00+4se23490 0.0 101924
1 march, mon
mon123:00+4se33414 0.0 101924
02:00+4se343765 0.0 101926
05:00+5se343477 0.0 101927
08:00+6se443461 0.0 101933
11:00+12s233930 0.0 1019241
14:00+16sw46260 0.0 10181977
17:00+14wsw35350 0.0 1017215
20:00+8se33400 0.0 101924
2 march, tue
tue223:00+8se443842 0.0 102036
02:00+8se443592 0.0 102036
05:00+8se333396 0.0 102025
08:00+9ese2236100 0.0 102123
11:00+13w0129100 0.0 1021221
14:00+13w3431100 0.0 1020888
17:00+12sw2241100 0.0 1020612
20:00+9s115687 0.0 102123
3 march, wed
wed323:00+8ese225991 0.0 102227
02:00+8sse2257100 0.0 102027
05:00+8sse2357100 0.0 101932
08:00+8ssw225898 0.0 101929
11:00+10nw114999 0.0 1018387
14:00+12w344596 0.0 10171175
17:00+10nw335498 0.1 1017560
20:00+8ese126852 0.4 101727
4 march, thu
thu423:00+8ese126839 0.7 101825
02:00+8se126587 0.8 101724
05:00+7sse237393 2.0 101843
08:00+7ese237189 0.4 101843
11:00+12wnw224767 0.4 1018832
14:00+14w35420 0.8 10161514
17:00+14wsw674824 1.9 10151385
20:00+9wsw457181 1.4 1018198